Weather History for Phoenix-Mesa Gateway Airport, AZ

Change the Weather History Date:

Wednesday, February 20, 2013

  Actual Average Record
Temperature  
Mean Temperature 46 °F -  
Max Temperature 55 °F 66 °F 82 °F (2000)
Min Temperature 37 °F 44 °F 37 °F (2013)
Degree Days  
Heating Degree Days 19    
Moisture  
Dew Point 36 °F    
Average Humidity 72    
Maximum Humidity 93    
Minimum Humidity 41    
Precipitation  
Precipitation 0.00 in - - ()
Sea Level Pressure  
Sea Level Pressure 29.80 in    
Wind  
Wind Speed 14 mph (SSE)    
Max Wind Speed 23 mph    
Max Gust Speed 29 mph    
Visibility 11 miles    
Events Rain , Thunderstorm    
Averages and records for this station are not official NWS values.
T = Trace of Precipitation, MM = Missing Value Source: NWS Daily Summary

Daily Weather History Graph

Daily Weather History Graph

Search for Another Location

Airport:

Trip Planner

Search our weather history database for the weather conditions in past years. The results will help you decide how hot, cold, wet, or windy it might be!

Date:

Astronomy

Feb. 20, 2013 Rise Set
Actual Time 7:04 AM MST 6:16 PM MST
Civil Twilight 6:39 AM MST 6:41 PM MST
Nautical Twilight 6:10 AM MST 7:10 PM MST
Astronomical Twilight 5:42 AM MST 7:39 PM MST
Moon 1:49 PM MST (2/20) 3:18 AM MST (2/20)
Length of Visible Light 12h 01m
Length of Day
11h 11m
Waxing Gibbous, 76% of the Moon is Illuminated
Feb 20
Waxing Gibbous
Feb 25
Full
Mar 4
Last Quarter
Mar 11
New
Mar 19
First Quarter

Hourly Weather History & Observations

Time (MST) Temp. Windchill Dew Point Humidity Pressure Visibility Wind Dir Wind Speed Gust Speed Precip Events Conditions
12:15 AM 55.4 °F - 32.0 °F 41% 29.73 in 10.0 mi South 12.7 mph - N/A   Clear
12:35 AM 55.4 °F - 33.8 °F 44% 29.73 in 10.0 mi SSW 13.8 mph - N/A   Clear
12:55 AM 53.6 °F - 35.6 °F 51% 29.73 in 10.0 mi SSW 12.7 mph 18.4 mph N/A   Clear
1:15 AM 53.6 °F - 35.6 °F 51% 29.72 in 10.0 mi SSW 19.6 mph 26.5 mph N/A   Clear
1:35 AM 53.6 °F - 35.6 °F 51% 29.73 in 10.0 mi SSW 17.3 mph - N/A   Clear
1:55 AM 53.6 °F - 35.6 °F 51% 29.73 in 10.0 mi SSW 21.9 mph - N/A   Clear
2:15 AM 51.8 °F - 35.6 °F 54% 29.73 in 10.0 mi SSW 19.6 mph - N/A   Clear
2:35 AM 51.8 °F - 35.6 °F 54% 29.73 in 10.0 mi SSW 18.4 mph 26.5 mph N/A   Clear
2:55 AM 51.8 °F - 35.6 °F 54% 29.71 in 10.0 mi SSW 23.0 mph 28.8 mph N/A   Clear
3:15 AM 51.8 °F - 35.6 °F 54% 29.70 in 10.0 mi SSW 19.6 mph - N/A   Clear
3:35 AM 51.8 °F - 35.6 °F 54% 29.70 in 10.0 mi SSW 17.3 mph 21.9 mph N/A   Clear
3:55 AM 51.8 °F - 35.6 °F 54% 29.70 in 10.0 mi SSW 15.0 mph 21.9 mph N/A   Scattered Clouds
4:15 AM 51.8 °F - 35.6 °F 54% 29.69 in 10.0 mi South 11.5 mph 19.6 mph N/A   Scattered Clouds
4:35 AM 51.8 °F - 35.6 °F 54% 29.69 in 10.0 mi SSW 17.3 mph - N/A   Mostly Cloudy
4:55 AM 51.8 °F - 37.4 °F 58% 29.68 in 10.0 mi South 15.0 mph 21.9 mph N/A   Scattered Clouds
5:15 AM 51.8 °F - 37.4 °F 58% 29.69 in 10.0 mi SSW 15.0 mph - N/A   Clear
5:47 AM 51.8 °F - 39.2 °F 62% 29.69 in 20.0 mi SSW 12.7 mph - N/A   Overcast
6:47 AM 51.8 °F - 37.4 °F 58% 29.69 in 20.0 mi South 13.8 mph - N/A   Overcast
7:47 AM 51.8 °F - 37.4 °F 58% 29.70 in 35.0 mi SSW 15.0 mph 23.0 mph N/A   Overcast
9:47 AM 44.6 °F 37.4 °F 39.2 °F 81% 29.74 in 3.0 mi West 16.1 mph - N/A Rain Rain
10:47 AM 41.0 °F 34.7 °F 37.4 °F 87% 29.77 in 4.0 mi SW 10.4 mph - N/A Rain Rain
11:14 AM 41.0 °F 34.7 °F 35.6 °F 81% 29.78 in 10.0 mi West 10.4 mph - N/A Rain Light Rain
11:47 AM 42.8 °F 37.0 °F 37.4 °F 81% 29.74 in 10.0 mi NNE 10.4 mph - N/A   Mostly Cloudy
12:47 PM 42.8 °F 39.3 °F 37.4 °F 81% 29.78 in 35.0 mi SE 5.8 mph - N/A   Mostly Cloudy
1:51 PM 44.6 °F 38.8 °F 37.4 °F 76% 29.76 in 35.0 mi ESE 11.5 mph - N/A   Mostly Cloudy
2:47 PM 44.6 °F 38.1 °F 39.2 °F 81% 29.78 in 15.0 mi SSE 13.8 mph - N/A Rain Rain
3:47 PM 46.4 °F 42.9 °F 37.4 °F 71% 29.77 in 15.0 mi ESE 6.9 mph - N/A   Overcast
4:47 PM 44.6 °F 40.2 °F 37.4 °F 76% 29.79 in 15.0 mi East 8.1 mph - N/A   Mostly Cloudy
5:47 PM 42.8 °F 36.6 °F 37.4 °F 81% 29.82 in 15.0 mi ESE 11.5 mph - N/A Thunderstorm Thunderstorm
6:18 PM 42.8 °F 34.0 °F 37.4 °F 81% 29.83 in 15.0 mi NW 20.7 mph 27.6 mph N/A Rain Light Rain
6:49 PM 37.4 °F 29.8 °F 33.8 °F 87% 29.86 in 20.0 mi NNE 11.5 mph - N/A   Mostly Cloudy
7:53 PM 39.2 °F 33.6 °F 37.4 °F 93% 29.89 in 20.0 mi ESE 8.1 mph - N/A   Mostly Cloudy
7:55 PM 41.0 °F 35.2 °F 35.6 °F 81% 29.89 in 10.0 mi SE 9.2 mph - N/A   Mostly Cloudy
8:15 PM 37.4 °F 30.8 °F 35.6 °F 93% 29.90 in 10.0 mi SE 9.2 mph - N/A   Scattered Clouds
8:35 PM 37.4 °F 30.8 °F 33.8 °F 87% 29.90 in 10.0 mi SE 9.2 mph - N/A   Clear
8:47 PM 37.4 °F 30.8 °F 35.6 °F 93% 29.91 in 20.0 mi ESE 9.2 mph - N/A   Mostly Cloudy
8:55 PM 37.4 °F 31.4 °F 33.8 °F 87% 29.92 in 10.0 mi ESE 8.1 mph - N/A   Clear
9:15 PM 37.4 °F 32.1 °F 33.8 °F 87% 29.93 in 10.0 mi ESE 6.9 mph - N/A   Clear
9:35 PM 37.4 °F 32.1 °F 33.8 °F 87% 29.94 in 10.0 mi SE 6.9 mph - N/A   Clear
9:55 PM 37.4 °F 30.8 °F 33.8 °F 87% 29.94 in 10.0 mi ESE 9.2 mph - N/A   Clear
10:15 PM 37.4 °F 31.4 °F 33.8 °F 87% 29.94 in 10.0 mi ESE 8.1 mph - N/A   Clear
10:35 PM 37.4 °F 30.8 °F 33.8 °F 87% 29.95 in 10.0 mi ESE 9.2 mph - N/A   Clear
10:55 PM 37.4 °F 31.4 °F 33.8 °F 87% 29.96 in 10.0 mi ESE 8.1 mph - N/A   Clear
11:15 PM 37.4 °F 30.8 °F 33.8 °F 87% 29.96 in 10.0 mi ESE 9.2 mph - N/A   Clear
11:35 PM 37.4 °F 30.8 °F 33.8 °F 87% 29.97 in 10.0 mi ESE 9.2 mph - N/A   Clear
11:55 PM 37.4 °F 30.8 °F 33.8 °F 87% 29.97 in 10.0 mi ESE 9.2 mph - N/A   Clear